Dewpoint
60 60 60 60 60 59 58 56 55 55 54 54 53 53 53 52 52 51 51 51 51 51 52 54 56 58 58 52 51 52 55 56 53 50 49 47 44 42 38 37 36 36 36 36 38 39 39
60 60 61 59 58 57 56 55 54 53 53 52 52 51 50 50 50 49 49 49 49 49 49 51 53 56 54 47 54 54 54 53 52 52 50 49 46 43 40 38 35 33 34 34 37 37 36
60 59 57 56 55 54 53 52 52 51 51 50 50 50 49 49 49 48 48 48 48 48 48 49 50 52 50 49 54 54 54 53 53 52 49 49 48 47 46 42 41 38 33 34 36 37 37
57 56 55 54 53 52 52 51 51 50 50 49 49 48 47 47 47 46 46 46 46 45 46 48 49 50 43 50 53 53 53 53 53 53 51 51 50 47 47 48 46 44 44 41 41 38 39
55 54 53 53 52 51 50 49 48 47 47 47 46 46 46 46 46 46 45 45 44 43 43 48 47 47 40 47 48 49 51 51 50 51 51 51 51 49 48 45 43 43 38 38 39 40 39
54 53 52 52 50 49 48 46 46 46 46 45 44 44 44 44 45 45 45 43 43 44 45 48 47 42 42 37 45 44 47 50 49 49 48 49 48 46 46 44 35 37 39 39 38 40 39
52 51 50 49 47 46 46 46 45 44 43 42 41 40 40 40 41 42 42 39 33 33 37 37 37 38 39 38 39 38 41 42 45 47 43 45 42 40 42 42 42 40 37 38 40 40 39
50 49 49 48 47 46 45 43 43 42 41 40 40 41 42 41 41 42 42 36 37 38 32 34 32 32 31 29 25 26 32 33 34 36 40 42 38 41 42 42 42 41 39 39 39 39 40
48 47 45 43 43 42 42 42 41 41 42 42 42 43 43 42 43 35 37 38 41 43 27 26 29 30 28 31 27 26 32 31 29 30 32 36 36 41 42 42 41 41 40 39 38 39 40
45 43 41 41 40 41 41 41 42 41 40 40 40 40 42 43 30 33 37 41 42 42 19 16 20 25 19 30 28 33 31 36 33 28 28 28 32 37 37 39 39 38 41 41 40 39 35
43 43 42 42 41 40 39 39 39 39 41 42 42 41 43 42 36 31 35 37 43 33 -26 4 12 19 15 23 27 26 34 31 33 35 32 28 25 32 32 33 36 36 41 40 39 39 37
42 40 39 39 39 40 41 41 41 41 41 42 42 42 42 36 36 36 36 37 33 10 -19 8 9 14 17 14 18 18 20 25 32 34 34 35 35 30 27 32 34 38 39 40 38 34 28
40 40 40 41 41 41 41 42 42 43 43 43 44 44 42 41 27 36 38 30 11 2 10 7 13 19 19 13 13 13 15 18 29 24 22 27 29 33 34 31 34 37 34 28 26 26 27
41 41 41 41 42 42 42 43 43 43 43 42 43 43 40 39 39 39 32 20 6 8 10 14 19 22 19 14 14 14 17 16 33 29 26 24 19 30 33 33 32 34 34 28 22 21 22
41 41 42 43 43 43 43 42 42 41 41 42 40 37 38 38 41 38 24 13 10 13 17 19 19 19 14 16 18 18 16 19 28 31 23 22 18 32 33 33 34 32 31 34 30 27 27
43 42 42 42 42 42 41 40 41 41 41 41 36 35 34 39 38 32 23 17 18 19 19 19 18 19 16 17 16 17 17 19 25 32 32 27 22 29 32 35 34 32 35 31 32 24 23
42 41 41 42 41 40 40 41 41 41 42 41 36 29 34 40 36 28 18 18 19 20 20 18 17 17 16 17 17 17 17 17 28 27 33 31 27 23 29 30 29 30 29 30 29 28 25
42 42 42 40 40 40 41 42 42 42 41 37 34 22 33 36 26 24 21 22 22 20 20 18 18 16 17 18 19 17 18 21 26 31 28 27 27 22 25 33 35 32 30 30 25 23 27
41 41 41 41 42 42 41 41 41 42 41 36 30 28 36 32 19 20 22 22 21 19 18 18 16 17 20 19 17 20 21 20 30 32 29 31 26 19 18 27 24 29 32 32 31 30 22
42 42 41 41 40 40 40 40 41 41 40 36 32 21 26 31 27 23 21 20 19 21 20 23 20 17 17 17 19 20 20 21 28 27 29 32 24 20 16 22 27 22 29 31 29 21 23
41 41 41 40 39 40 41 41 39 40 40 37 31 24 27 18 20 23 23 20 19 19 22 24 19 17 17 15 18 17 18 21 22 26 25 24 18 19 16 23 18 16 21 23 25 28 24
42 42 42 41 42 42 40 41 41 42 42 36 27 28 28 26 26 22 21 20 20 21 22 19 18 19 18 15 16 16 19 20 21 22 20 22 13 16 10 10 11 10 17 16 23 30 29
42 42 43 42 41 41 42 41 41 41 40 34 34 33 29 24 23 21 21 22 22 24 22 21 22 20 17 15 17 19 22 22 22 22 21 22 14 13 7 12 14 10 14 17 21 27 28
42 42 41 42 42 42 42 42 42 42 41 38 36 35 26 19 22 22 23 25 24 24 24 23 23 24 24 28 23 21 19 20 22 21 23 18 14 16 11 13 -0 21 22 19 18 18 21
42 42 42 42 41 41 41 41 42 42 42 38 38 34 28 23 24 24 24 25 25 25 23 23 24 26 30 25 18 17 12 10 10 15 18 19 17 11 10 12 11 21 28 26 21 22 21
41 40 40 40 40 40 40 41 41 41 41 38 37 36 30 25 18 26 25 25 25 24 23 24 28 29 28 23 18 15 11 11 11 12 17 19 18 12 11 8 8 24 29 29 24 21 31
39 39 39 39 39 39 39 39 39 40 41 39 37 39 34 26 28 28 24 26 28 26 25 24 26 26 26 20 19 18 18 21 16 15 17 14 17 14 16 14 14 27 28 25 18 21 28
39 38 38 38 38 38 38 38 38 38 39 39 34 38 33 27 27 28 29 25 27 28 26 25 21 23 24 19 20 20 20 23 23 25 23 20 16 15 17 16 13 31 27 24 29 29 23
39 39 38 38 38 38 38 37 38 38 38 39 34 37 38 32 29 31 33 33 31 30 30 28 25 26 27 22 20 23 22 24 23 17 25 19 26 23 21 21 31 34 32 31 32 24 23
Wind_Speed
18 16 15 12 9 14 15 15 16 14 14 13 12 11 9 8 6 8 8 10 12 12 10 11 13 14 10 14 21 23 12 18 25 3 6 10 15 14 23 14 20 29 36 36 34 30 32
17 16 12 18 19 18 18 17 15 15 14 12 11 9 8 9 10 9 9 11 12 15 15 14 13 13 11 43 6 18 31 27 26 20 19 15 11 18 18 22 25 16 28 38 36 36 30
16 20 23 21 21 21 19 18 16 14 10 11 9 8 8 10 9 11 11 13 15 17 16 14 12 8 18 40 4 0 12 30 28 20 21 26 26 19 7 27 30 35 34 38 39 30 21
26 24 26 24 23 22 19 16 16 15 13 9 8 10 7 8 11 12 14 15 18 22 18 17 11 5 22 2 18 35 36 37 29 25 24 22 20 24 24 20 32 31 25 33 19 28 14
27 26 24 23 22 22 19 18 14 14 12 8 7 9 8 8 11 13 18 21 27 25 17 7 1 6 21 12 5 19 26 31 29 34 35 25 21 30 20 30 32 24 38 36 41 18 10
28 26 24 19 18 21 18 16 14 12 12 10 8 7 8 11 14 16 21 27 24 10 4 6 3 6 10 13 11 15 13 26 26 28 26 23 21 33 32 32 45 37 27 34 51 28 28
28 24 21 20 17 19 16 16 16 11 12 9 6 8 11 13 16 17 15 7 7 4 6 7 8 18 34 29 31 22 16 17 19 22 36 31 28 49 53 48 43 42 40 42 45 24 34
24 28 24 22 21 18 15 14 13 12 9 8 8 10 13 15 17 19 2 5 3 3 13 15 27 31 32 23 39 39 30 23 24 35 34 35 49 49 40 44 45 46 45 48 46 37 28
28 22 23 20 19 17 15 14 12 10 9 8 7 8 11 16 17 6 5 3 4 2 8 8 11 9 11 4 9 12 10 19 34 40 41 48 50 37 41 40 50 49 49 53 46 22 36
26 22 22 21 19 16 15 13 12 9 6 4 7 13 15 19 4 5 3 4 4 1 7 8 5 6 11 7 5 8 7 15 9 30 41 32 38 42 48 42 36 50 49 45 52 43 47
24 23 22 21 18 16 14 12 9 6 6 10 8 8 12 6 1 4 7 9 3 2 9 5 3 5 21 11 14 17 15 10 20 28 21 42 44 43 49 48 36 52 23 18 18 29 40
25 22 21 19 17 14 13 11 9 6 3 2 4 5 9 6 6 5 11 9 3 5 6 10 15 23 32 24 16 18 17 15 13 12 24 35 39 35 50 40 41 33 32 27 27 14 22
24 23 21 18 16 14 12 9 6 3 2 5 5 5 2 0 2 5 8 4 3 3 8 6 29 25 33 22 24 22 27 24 12 15 21 26 12 29 45 38 40 34 33 23 11 10 12
23 20 19 17 14 12 9 7 6 5 5 7 6 5 2 6 6 6 5 6 1 4 9 16 19 29 12 17 22 23 22 23 4 10 19 12 19 25 21 5 17 29 30 31 8 21 28
22 20 17 15 13 11 10 9 7 6 9 11 6 4 0 4 8 3 7 5 4 4 8 13 22 7 20 19 13 12 17 14 6 6 10 13 10 3 7 3 7 9 34 30 31 37 21
22 20 18 16 13 12 11 9 9 11 15 14 4 3 2 3 10 7 5 3 4 9 19 19 10 8 18 23 16 16 7 12 13 5 5 6 13 12 3 6 8 4 5 8 21 11 18
20 18 18 17 14 13 11 11 13 15 15 9 5 4 2 6 6 6 1 5 10 15 19 9 12 17 17 14 19 12 7 19 8 14 12 9 6 10 9 4 8 4 1 1 4 5 11
19 19 19 17 14 12 13 13 15 18 13 13 4 4 1 4 2 0 3 4 10 21 16 13 9 8 8 16 10 10 11 15 22 8 13 7 6 9 6 4 13 7 10 6 4 2 5
20 18 18 17 15 15 15 14 17 21 17 3 4 1 3 6 3 4 6 11 14 15 15 8 5 7 4 7 7 10 13 17 17 10 7 7 7 8 2 2 10 6 7 5 2 3 14
19 18 19 17 16 16 14 15 17 22 15 5 3 1 2 1 2 3 9 9 9 9 14 9 8 6 7 7 7 9 10 7 12 10 14 6 2 7 8 8 6 9 10 6 3 2 3
18 17 17 16 16 16 14 15 18 18 14 4 3 2 2 3 4 9 7 5 13 11 2 7 4 11 15 6 9 6 9 13 11 8 12 10 5 9 13 3 7 11 7 7 7 2 7
18 17 16 15 17 16 14 16 19 13 8 3 2 2 2 4 6 7 4 5 13 15 5 8 10 20 13 7 12 21 17 9 10 9 14 14 8 13 9 16 19 10 14 9 7 9 8
18 18 19 20 18 17 17 15 11 9 6 1 1 1 2 3 3 3 3 10 11 16 6 12 14 12 12 13 15 19 19 22 20 19 19 6 3 9 8 18 14 9 15 14 16 12 6
19 21 21 20 18 19 15 8 5 6 5 2 3 1 1 3 3 3 8 10 13 13 12 11 11 8 9 21 16 14 19 19 18 23 17 10 7 2 7 12 5 12 17 23 33 24 20
21 21 19 18 17 14 8 2 3 4 4 1 2 2 3 4 5 6 9 9 14 12 9 10 9 15 19 9 5 8 6 8 8 13 2 17 5 3 3 7 7 10 15 13 16 23 22
20 19 17 16 14 9 6 4 4 4 5 2 2 4 2 1 4 3 8 5 8 11 10 7 14 12 12 7 4 4 4 5 6 11 8 9 8 4 3 3 5 9 17 23 6 10 16
18 17 16 13 10 8 6 4 6 6 6 1 3 4 2 4 4 1 2 4 4 6 7 9 15 9 10 11 7 4 4 9 5 8 9 7 4 5 2 3 3 15 14 11 4 5 2
17 16 14 12 9 7 4 4 5 6 6 3 4 4 3 3 9 6 5 8 7 3 4 8 8 7 8 12 6 5 4 5 6 7 6 5 6 3 3 1 2 18 8 6 7 5 6
16 14 12 10 8 6 4 4 5 5 5 3 2 3 2 5 8 6 19 22 15 19 2 2 2 3 1 5 4 5 4 5 12 8 9 6 6 3 2 2 8 7 7 2 7 9 11
Wind_Direction
207 207 213 212 190 146 136 126 111 103 93 87 79 70 56 54 33 16 357 341 337 328 315 305 305 302 286 240 238 259 261 275 307 316 226 212 222 226 245 245 244 241 256 253 257 253 250
209 206 194 150 138 130 120 113 105 98 93 89 82 60 33 17 16 359 340 333 322 314 311 309 306 316 257 256 267 252 247 266 269 264 252 230 218 215 253 265 243 247 262 254 254 254 254
184 145 135 130 127 120 114 112 104 93 83 86 76 73 46 1 359 340 335 326 311 295 292 292 295 296 261 252 265 176 278 240 248 235 232 227 225 220 235 256 258 256 255 263 253 248 240
139 142 139 132 128 125 123 118 110 107 98 80 69 57 33 7 342 333 324 309 295 285 287 283 279 262 264 309 235 249 261 263 264 265 254 247 240 239 232 262 274 273 269 267 268 235 222
143 139 133 133 133 125 124 115 114 109 98 84 60 42 13 349 337 332 321 312 290 286 284 269 273 234 273 320 251 243 239 247 254 255 256 257 253 239 235 237 254 247 252 251 269 229 223
136 132 127 131 136 124 125 124 114 101 104 89 57 34 1 340 336 333 320 299 286 290 284 167 228 266 277 292 279 329 307 243 251 261 259 240 244 238 225 217 231 240 238 240 248 230 224
134 132 135 141 134 124 126 119 107 106 84 68 37 10 358 341 337 332 332 343 12 2 23 269 284 242 290 283 298 300 306 317 282 254 245 237 233 231 230 230 238 236 231 241 250 235 232
143 139 138 138 126 124 120 113 105 90 77 55 29 6 356 343 331 322 13 25 50 321 299 253 256 264 282 292 290 281 271 284 284 271 258 248 235 239 241 241 239 238 239 237 252 245 223
132 135 134 127 125 128 123 108 96 89 76 52 25 356 349 337 329 12 64 132 194 109 279 277 243 254 263 245 267 315 335 286 269 271 266 260 253 246 242 237 233 237 233 236 239 243 236
132 137 133 131 129 123 115 110 102 91 71 41 18 360 349 331 62 329 62 240 222 138 335 288 225 224 10 257 294 269 289 320 270 259 258 266 269 260 252 258 246 241 235 239 240 240 240
139 133 129 128 125 121 113 107 105 102 64 26 4 348 344 345 347 50 324 352 242 34 326 311 341 93 357 30 339 356 331 322 307 301 256 256 255 259 259 260 261 259 278 252 279 285 254
134 132 130 127 125 121 122 119 105 74 64 19 1 1 2 17 358 280 313 317 97 46 276 321 343 342 352 342 344 329 326 319 293 312 288 260 258 261 255 266 263 264 258 264 264 239 253
134 134 131 132 131 127 118 106 112 115 40 12 347 324 359 75 191 298 321 45 56 160 316 328 340 339 329 326 338 337 335 338 338 332 316 315 273 285 236 251 259 278 248 255 236 209 241
132 131 133 132 124 114 115 119 104 79 35 9 340 315 277 204 229 296 34 62 79 248 273 326 339 314 300 329 331 329 334 319 211 328 301 340 341 359 347 276 268 231 247 222 254 239 250
132 134 127 120 118 120 124 117 98 70 43 19 37 35 16 266 209 88 62 70 230 257 330 321 320 309 312 321 310 338 324 288 275 23 350 314 307 300 255 300 296 267 232 236 242 246 275
134 127 122 122 124 127 121 106 86 58 44 40 59 20 343 113 102 76 75 269 249 286 301 307 296 299 309 322 331 336 312 286 319 314 250 287 297 249 300 252 272 47 336 222 200 236 218
130 131 130 130 135 126 112 89 66 48 28 69 64 53 299 101 66 60 146 240 285 285 304 304 280 300 316 332 318 315 273 303 325 321 309 280 257 290 273 307 310 349 6 28 330 12 250
135 136 136 132 123 112 89 72 65 56 37 52 77 69 275 87 12 79 247 235 288 296 309 305 270 287 314 321 313 327 329 309 334 338 312 285 278 283 300 40 51 27 10 355 53 333 348
133 134 130 123 114 97 86 73 61 58 55 58 65 326 23 94 252 283 277 277 281 293 309 297 294 296 278 304 319 323 323 318 355 10 347 323 336 312 334 343 14 23 350 346 343 1 20
131 127 121 116 107 95 86 72 62 57 48 65 46 40 332 30 234 291 306 303 320 297 302 331 287 310 326 309 303 286 310 315 331 321 332 1 292 35 5 305 297 324 343 319 341 92 156
129 127 120 115 104 90 77 72 59 47 42 72 44 237 222 253 303 306 292 286 320 335 259 306 319 327 315 304 307 289 315 316 305 284 332 343 319 340 307 300 328 307 309 325 35 30 66
127 123 121 111 92 86 77 62 55 36 31 110 200 216 1 285 285 318 325 319 329 343 283 305 308 313 300 286 280 293 291 295 287 306 337 334 321 342 314 341 343 332 2 355 92 51 65
131 122 107 95 91 81 69 64 50 36 60 174 237 245 158 253 294 344 296 323 329 339 299 314 332 321 304 307 291 273 267 267 252 272 289 292 276 344 308 323 322 16 2 55 53 85 111
119 107 102 96 87 77 69 59 78 58 71 179 238 124 141 264 297 285 308 314 327 333 316 309 345 344 301 304 287 281 284 273 259 256 223 243 259 234 288 331 81 58 35 74 67 44 45
107 101 93 89 83 81 89 128 83 61 40 156 239 176 183 283 240 302 317 325 322 325 330 307 325 318 302 309 320 328 327 357 335 360 9 205 171 268 341 333 293 34 14 21 65 44 32
100 100 97 91 91 105 111 92 70 48 16 82 268 124 145 228 246 328 319 316 331 335 333 302 323 327 3 6 3 341 350 322 330 333 17 92 117 140 45 9 329 31 338 323 297 61 352
111 107 104 107 113 106 87 72 54 38 20 96 242 180 147 255 273 21 246 310 314 338 299 305 334 338 15 9 9 345 328 337 336 334 333 334 31 67 121 202 304 339 321 298 59 86 327
122 120 119 119 108 98 84 55 44 27 12 44 262 213 177 249 274 235 223 287 305 240 314 307 353 360 346 17 20 333 309 332 322 342 351 17 343 13 5 333 53 344 345 66 129 214 55
127 125 122 114 108 91 68 44 32 15 6 27 271 324 189 222 257 252 272 261 225 229 231 287 279 312 293 352 9 316 330 315 345 3 331 24 4 53 40 94 5 1 358 265 190 95 61